When you browse on this site, cookies collect data to enhance your experience and personalize the content and advertising you see.
Visit our Privacy Policy to learn more. By continuing to use the site, you agree to this use of cookies and data.
  • In Portugal
  • List of Countries
  • For 7 days
  • Water Temperature
  • Satellite Maps
  • Weather Map
  • Weather Widgets
  • user-avatar
    Login

    Hourly Weather Lysmanovo

    Today, 18 February, Monday

    Time Temperature Precipitation Wind Pressure Humidity
    00:00 -7°C° 0.1 mm 4 mps 724 mmHg 92%
    01:00 -6°C° 0.1 mm 3 mps 724 mmHg 92%
    02:00 -6°C° 0.2 mm 3 mps 723 mmHg 92%
    03:00 -6°C° 0.2 mm 3 mps 723 mmHg 92%
    04:00 -6°C° 0 mm 3 mps 723 mmHg 93%
    05:00 -6°C° 0.2 mm 3 mps 723 mmHg 94%
    06:00 -5°C° 0.2 mm 2 mps 723 mmHg 94%
    07:00 -5°C° 0.2 mm 2 mps 723 mmHg 94%
    08:00 -5°C° 0.2 mm 2 mps 723 mmHg 94%
    09:00 -4°C° 0.2 mm 2 mps 723 mmHg 93%
    10:00 -4°C° 0.2 mm 2 mps 723 mmHg 92%
    11:00 -3°C° 0.2 mm 2 mps 723 mmHg 91%
    12:00 -1°C° 0.2 mm 1 mps 724 mmHg 89%
    13:00 0°C° 0.2 mm 1 mps 724 mmHg 88%
    14:00 0°C° 0.2 mm 1 mps 724 mmHg 89%
    15:00 -1°C° 0.2 mm 1 mps 725 mmHg 90%
    16:00 -1°C° 0.2 mm 1 mps 725 mmHg 92%
    17:00 -1°C° 0.2 mm 1 mps 725 mmHg 93%
    18:00 -4°C° 0.2 mm 2 mps 726 mmHg 94%
    19:00 -4°C° 0.2 mm 2 mps 727 mmHg 96%
    20:00 -6°C° 0.3 mm 3 mps 727 mmHg 93%
    21:00 -8°C° 0.3 mm 5 mps 728 mmHg 91%
    22:00 -10°C° 0.3 mm 6 mps 729 mmHg 88%
    23:00 -11°C° 0.1 mm 6 mps 729 mmHg 87%

    Tomorrow, 19 February, Tuesday

    Time Temperature Precipitation Wind Pressure Humidity
    00:00 -12°C° 0.1 mm 6 mps 730 mmHg 87%
    01:00 -15°C° 0.1 mm 6 mps 730 mmHg 86%
    02:00 -15°C° 0.1 mm 6 mps 731 mmHg 86%
    03:00 -16°C° 0.1 mm 6 mps 732 mmHg 85%
    04:00 -17°C° 0.1 mm 6 mps 733 mmHg 85%
    05:00 -18°C° 0 mm 6 mps 734 mmHg 85%
    06:00 -20°C° 0 mm 6 mps 734 mmHg 85%
    07:00 -21°C° 0 mm 6 mps 735 mmHg 85%
    08:00 -21°C° 0 mm 6 mps 736 mmHg 86%
    09:00 -20°C° 0 mm 5 mps 736 mmHg 86%
    10:00 -20°C° 0 mm 5 mps 737 mmHg 86%
    11:00 -20°C° 0 mm 5 mps 737 mmHg 87%
    12:00 -18°C° 0 mm 4 mps 738 mmHg 87%
    13:00 -18°C° 0 mm 4 mps 738 mmHg 87%
    14:00 -18°C° 0 mm 4 mps 739 mmHg 87%
    15:00 -17°C° 0 mm 3 mps 739 mmHg 88%
    16:00 -17°C° 0 mm 3 mps 739 mmHg 88%
    17:00 -18°C° 0 mm 3 mps 740 mmHg 91%
    18:00 -19°C° 0 mm 2 mps 740 mmHg 93%
    19:00 -20°C° 0 mm 2 mps 741 mmHg 96%
    20:00 -18°C° 0 mm 1 mps 741 mmHg 96%
    21:00 -18°C° 0 mm 1 mps 741 mmHg 96%
    22:00 -18°C° 0 mm 1 mps 741 mmHg 96%
    23:00 -18°C° 0 mm 1 mps 741 mmHg 96%

    Day after tomorrow, 20 February, Wednesday

    Time Temperature Precipitation Wind Pressure Humidity
    00:00 -18°C° 0 mm 1 mps 741 mmHg 95%
    01:00 -18°C° 0 mm 0 mps 742 mmHg 95%
    02:00 -19°C° 0 mm 1 mps 742 mmHg 95%
    03:00 -20°C° 0 mm 1 mps 742 mmHg 96%
    04:00 -20°C° 0 mm 1 mps 742 mmHg 96%
    05:00 -20°C° 0 mm 1 mps 742 mmHg 95%
    06:00 -20°C° 0 mm 1 mps 742 mmHg 94%
    07:00 -21°C° 0 mm 1 mps 742 mmHg 94%
    08:00 -21°C° 0 mm 2 mps 742 mmHg 91%
    09:00 -20°C° 0 mm 2 mps 742 mmHg 89%
    10:00 -18°C° 0 mm 2 mps 742 mmHg 87%
    11:00 -18°C° 0 mm 3 mps 742 mmHg 88%
    12:00 -16°C° 0 mm 3 mps 741 mmHg 89%
    13:00 -14°C° 0 mm 3 mps 741 mmHg 90%
    14:00 -15°C° 0 mm 4 mps 741 mmHg 90%
    15:00 -14°C° 0 mm 4 mps 741 mmHg 91%
    16:00 -14°C° 0 mm 4 mps 740 mmHg 91%
    17:00 -14°C° 0.1 mm 4 mps 740 mmHg 91%
    18:00 -14°C° 0.1 mm 4 mps 740 mmHg 91%
    19:00 -15°C° 0.1 mm 4 mps 739 mmHg 92%
    20:00 -14°C° 0.1 mm 4 mps 739 mmHg 91%
    21:00 -14°C° 0.1 mm 4 mps 738 mmHg 91%
    22:00 -14°C° 0.1 mm 5 mps 738 mmHg 90%
    23:00 -13°C° 0.1 mm 5 mps 737 mmHg 89%

    21 February, Thursday

    Time Temperature Precipitation Wind Pressure Humidity
    00:00 -12°C° 0.1 mm 5 mps 737 mmHg 89%
    01:00 -12°C° 0.1 mm 5 mps 736 mmHg 88%
    02:00 -12°C° 0.2 mm 5 mps 736 mmHg 89%
    03:00 -11°C° 0.2 mm 5 mps 735 mmHg 90%
    04:00 -11°C° 0.2 mm 5 mps 735 mmHg 91%
    05:00 -10°C° 0.2 mm 5 mps 735 mmHg 91%
    06:00 -10°C° 0.2 mm 5 mps 734 mmHg 90%
    07:00 -10°C° 0.2 mm 5 mps 734 mmHg 90%
    08:00 -8°C° 0.1 mm 5 mps 734 mmHg 89%
    09:00 -7°C° 0.1 mm 5 mps 734 mmHg 89%
    10:00 -5°C° 0.1 mm 5 mps 734 mmHg 88%
    11:00 -5°C° 0 mm 5 mps 735 mmHg 88%
    12:00 -5°C° 0 mm 5 mps 735 mmHg 88%
    13:00 -4°C° 0 mm 5 mps 735 mmHg 88%
    14:00 -4°C° 0.1 mm 5 mps 735 mmHg 88%
    15:00 -4°C° 0.1 mm 5 mps 735 mmHg 88%
    16:00 -4°C° 0.1 mm 5 mps 735 mmHg 88%
    17:00 -5°C° 0.1 mm 5 mps 736 mmHg 89%
    18:00 -4°C° 0.1 mm 4 mps 736 mmHg 89%
    19:00 -5°C° 0.1 mm 4 mps 736 mmHg 89%
    20:00 -5°C° 0 mm 4 mps 736 mmHg 90%
    21:00 -5°C° 0 mm 4 mps 736 mmHg 91%
    22:00 -5°C° 0 mm 3 mps 736 mmHg 92%
    23:00 -6°C° 0.1 mm 3 mps 736 mmHg 92%

    22 February, Friday

    Time Temperature Precipitation Wind Pressure Humidity
    00:00 -6°C° 0.1 mm 3 mps 736 mmHg 92%
    01:00 -6°C° 0.1 mm 3 mps 736 mmHg 93%
    02:00 -6°C° 0.2 mm 3 mps 736 mmHg 93%
    03:00 -6°C° 0.2 mm 3 mps 736 mmHg 93%
    04:00 -7°C° 0.2 mm 3 mps 736 mmHg 93%
    05:00 -7°C° 0.2 mm 3 mps 736 mmHg 94%
    06:00 -6°C° 0.2 mm 2 mps 735 mmHg 94%
    07:00 -5°C° 0.2 mm 2 mps 735 mmHg 95%
    08:00 -5°C° 0.2 mm 2 mps 735 mmHg 94%
    09:00 -5°C° 0.2 mm 3 mps 735 mmHg 93%
    10:00 -4°C° 0.2 mm 3 mps 735 mmHg 92%
    11:00 -2°C° 0.3 mm 3 mps 735 mmHg 92%
    12:00 -2°C° 0.3 mm 3 mps 735 mmHg 92%
    13:00 -2°C° 0.3 mm 4 mps 735 mmHg 91%
    14:00 -1°C° 0.3 mm 3 mps 735 mmHg 91%
    15:00 -1°C° 0.3 mm 3 mps 735 mmHg 90%
    16:00 -1°C° 0.3 mm 3 mps 735 mmHg 90%
    17:00 -2°C° 0.2 mm 3 mps 735 mmHg 92%
    18:00 -3°C° 0.2 mm 2 mps 735 mmHg 94%
    19:00 -3°C° 0.2 mm 2 mps 735 mmHg 96%
    20:00 -1°C° 0.3 mm 1 mps 736 mmHg 96%
    21:00 -1°C° 0.3 mm 1 mps 736 mmHg 97%
    22:00 -1°C° 0.3 mm 1 mps 736 mmHg 97%
    23:00 -4°C° 0.6 mm 2 mps 736 mmHg 97%

    23 February, Saturday

    Time Temperature Precipitation Wind Pressure Humidity
    00:00 -6°C° 0.6 mm 2 mps 736 mmHg 97%
    01:00 -7°C° 0.6 mm 2 mps 737 mmHg 97%
    02:00 -8°C° 0.2 mm 2 mps 737 mmHg 96%
    03:00 -10°C° 0.2 mm 2 mps 737 mmHg 96%
    04:00 -14°C° 0.2 mm 3 mps 738 mmHg 95%
    05:00 -15°C° 0.1 mm 3 mps 738 mmHg 95%
    06:00 -15°C° 0.1 mm 3 mps 738 mmHg 94%
    07:00 -16°C° 0.1 mm 3 mps 739 mmHg 94%
    08:00 -15°C° 0.1 mm 3 mps 740 mmHg 94%
    09:00 -14°C° 0.1 mm 3 mps 740 mmHg 93%
    10:00 -13°C° 0.1 mm 3 mps 741 mmHg 93%
    11:00 -13°C° 0.1 mm 3 mps 742 mmHg 93%
    12:00 -13°C° 0.1 mm 3 mps 742 mmHg 92%
    13:00 -12°C° 0.1 mm 3 mps 743 mmHg 92%
    14:00 -13°C° 0.1 mm 3 mps 744 mmHg 92%
    15:00 -13°C° 0.1 mm 3 mps 744 mmHg 91%
    16:00 -14°C° 0.1 mm 3 mps 745 mmHg 91%
    17:00 -14°C° 0.1 mm 2 mps 745 mmHg 93%
    18:00 -14°C° 0.1 mm 2 mps 746 mmHg 94%
    19:00 -15°C° 0.1 mm 2 mps 746 mmHg 95%
    20:00 -14°C° 0 mm 1 mps 746 mmHg 96%
    21:00 -15°C° 0 mm 1 mps 747 mmHg 97%
    22:00 -16°C° 0 mm 1 mps 747 mmHg 97%
    23:00 -16°C° 0 mm 1 mps 747 mmHg 97%
    Show more